www.pogodaiklimat.ru

Погода и климат >> Архив погоды >> Россия >> Камчатский край >> Чемурнаут


ПОГОДА в Чемурнауте

  • Прогноз погоды в Чемурнауте
  • Монитор погоды в Чемурнауте
  • Климат города

АРХИВ ПОГОДЫ в Чемурнауте

Время (UTC), дата Ветер
(напр.,м/с)
 
Видим.   Явления Облачность Т
(С)
Тd
(С)
f
(%)
Тe
(С)
Тes
(С)
Комфортность P
(гПа)
Po
(гПа)
Тmin
(С)
Tmax
(С)
R
(мм)
R24
(мм)
S
(см)
06 17.08 З 14-18
{18}
20 км 9/9 300 м
[St]
+13.2 +9.5 78 +9 +9 1010.6 1008.9
09 17.08 З 14-18
{18}
20 км 9/9 300 м
[St]
+12.2 +9.0 81 +8 +8 1011.7 1010.0 +14.6
12 17.08 З 14-18
{18}
20 км 6/6 300 м
[St]
+12.4 +9.2 81 +8 +8 1011.2 1009.5
15 17.08 З 12-16
{18}
20 км 3/3 300 м
[St]
+12.2 +8.4 78 +8 +8 1011.2 1009.5
21 17.08 З 12-16
{16}
20 км 8/8 300 м
[St]
+12.8 +8.7 76 +9 +9 1010.6 1008.9 +11.5
00 18.08 З 14 20 км 8/8 300 м
[St]
+14.3 +9.0 70 +11 +11 1011.7 1010.0
03 18.08 З 14-18
{18}
20 км 8/3 300 м
[St Ac trans Ci fib]
+13.9 +8.8 71 +11 +11 1011.0 1009.3
06 18.08 З 12-16
{18}
20 км 8/6 300 м
[St Ci fib]
+13.2 +8.8 75 +10 +10 1010.5 1008.8
09 18.08 З 10-14
{16}
20 км 8/6 300 м
[St Ci fib]
+11.9 +9.0 82 +8 +8 1011.1 1009.4 +14.6
12 18.08 З 10-14
{14}
20 км 6/6 300 м
[St]
+12.1 +8.3 78 +9 +9 1011.4 1009.7
15 18.08 -12
{14}
20 км н/о +11.8 +7.9 77 +8 +8 1011.4 1009.7
18 18.08 З 9-12
{12}
20 км 8/5 300 м
[St Ci fib]
+11.9 +8.5 80 +8 +8 1011.0 1009.3
21 18.08 З 9-12
{12}
20 км 8/8 300 м
[St]
+12.9 +9.4 79 +10 +10 1011.5 1009.8 +11.3
00 19.08 З 9-12
{12}
20 км 8/5 300 м
[St Ci fib]
+14.5 +10.5 77 +12 +12 1011.1 1009.4
03 19.08 З 10-14
{14}
20 км 8/4 300 м
[St Ac trans Ci fib]
+14.1 +9.4 73 +11 +11 1010.6 1008.9
06 19.08 З 9-12
{14}
20 км 9/8 300 м
[St Ci fib]
+13.3 +9.0 75 +10 +10 1010.6 1008.9
09 19.08 З 9-12
{12}
20 км 9/9 300 м
[St]
+12.3 +8.0 75 +9 +9 1011.2 1009.5 +14.8
15 19.08 З 6 20 км 9/9 300 м
[St]
+11.8 +8.4 80 +9 +9 1013.0 1011.3
18 19.08 З 5 4000 м слабая морось 10/10 300 м
[St]
+11.7 +9.3 85 +9 +9 1013.6 1011.9
21 19.08 З 4 20 км {морось} 9/9 300 м
[St]
+13.8 +9.9 77 +12 +13 1014.0 1012.3 +11.4 0.0
00 20.08 З 2 20 км {морось} 9/9 300 м
[St]
+13.5 +10.2 80 +13 +14 1014.2 1012.5
03 20.08 С 1 20 км 9/9 300 м
[St]
+13.7 +9.8 77 +14 +15 1014.0 1012.3
06 20.08 СЗ 2 20 км 9/9 300 м
[St]
+13.7 +9.4 75 +13 +13 1013.9 1012.2
09 20.08 В 1 20 км 9/9 300 м
[St]
+12.5 +9.1 80 +13 +13 1014.3 1012.6 +14.3
12 20.08 Ю 1 20 км 9/9 300 м
[St]
+11.4 +9.6 89 +11 +11 1014.7 1013.0
15 20.08 Ю 1 4000 м слабая морось 10/10 300 м
[Sc]
+11.3 +9.3 87 +11 +11 1014.8 1013.1
18 20.08 Ю 2 20 км {морось} 9/9 300 м
[St]
+10.9 +8.7 86 +10 +10 1014.6 1012.9
21 20.08 Ю 1 20 км 9/9 600 м
[Sc]
+11.9 +8.5 80 +12 +12 1014.6 1012.9 +10.6 0.4
00 21.08 штиль 0 20 км 9/9 600 м
[Sc]
+14.1 +10.3 78 +14 +15 1014.6 1012.9
03 21.08 С 1 20 км 9/9 600 м
[Sc]
+14.6 +10.4 76 +15 +16 1014.2 1012.5
06 21.08 С 1 4000 м 9/9 300 м
[Sc]
+14.5 +9.5 72 +15 +15 1013.8 1012.1
09 21.08 С 1 20 км 9/9 600 м
[Sc]
+13.4 +8.9 74 +14 +14 1013.9 1012.2 +14.9
12 21.08 20 км н/о +12.2 +9.0 81 +12 +12 1014.5 1012.8
15 21.08 Ю 3 20 км 9/9 600 м
[Sc]
+12.1 +8.7 80 +11 +11 1014.4 1012.7
18 21.08 Ю 2 20 км 9/9 600 м
[Sc]
+10.9 +7.8 81 +10 +10 1014.4 1012.7
21 21.08 ЮВ 1 20 км 9/9 600 м
[Sc]
+12.3 +8.5 78 +12 +13 1014.8 1013.1 +10.8
00 22.08 В 3 20 км 9/9 600 м
[Sc]
+15.4 +10.3 72 +15 +16 1015.0 1013.3
03 22.08 С 4 20 км {ливн. осадки} 9/9 600 м
[Sc diur, vesp]
+14.7 +10.9 78 +13 +14 1013.9 1012.2
06 22.08 С 4 20 км {ливн. осадки} 9/9 600 м
[Sc diur, vesp]
+14.7 +11.1 79 +13 +14 1013.2 1011.5
09 22.08 Ю 1 20 км 9/9 600 м
[Sc]
+13.7 +10.5 81 +14 +14 1013.2 1011.5 +15.9 2
12 22.08 Ю 1 20 км 9/9 600 м
[Sc]
+11.6 +8.6 82 +11 +11 1013.3 1011.6
15 22.08 ЮВ 1 20 км 9/9 600 м
[Sc]
+10.5 +7.6 82 +10 +10 1012.8 1011.1
18 22.08 Ю 1 20 км 8/8 600 м
[Sc]
+9.0 +5.9 81 +8 +8 1012.2 1010.5
21 22.08 Ю 1 20 км 9/9 600 м
[Sc]
+10.5 +7.6 82 +10 +11 1011.9 1010.2 +8.8
00 23.08 С 2 20 км 6/4 600 м
[Sc Ac trans]
+15.7 +11.8 78 +16 +20 1011.4 1009.7
03 23.08 С 3 20 км 8/6 600 м
[Sc Ac trans]
+15.3 +10.6 74 +15 +16 1010.3 1008.6
06 23.08 СЗ 1 20 км 10/6 600 м
[Sc Ac trans Ci fib]
+16.1 +10.9 71 +17 +17 1009.6 1007.9
09 23.08 Ю 1 20 км 10/8 600 м
[Sc Ci fib]
+15.9 +11.9 77 +17 +17 1009.5 1007.8 +16.3
12 23.08 Ю 1 20 км 6/4 600 м
[Sc Ci fib]
+14.2 +10.2 77 +15 +15 1010.0 1008.3
18 23.08 Ю 3 20 км 5/0
[Ac trans Ci fib]
+5.5 +2.8 83 +2 +2 1015.4 1009.6
21 23.08 ЮВ 4 20 км 6/0
[Ac trans Ci fib]
+10.6 +7.3 80 +8 +10 1012.2 1010.5 +5.5
00 24.08 С 2 20 км 8/3 600 м
[Sc Ac trans Ci fib]
+16.5 +11.5 72 +17 +20 1081.7 1010.0
03 24.08 СЗ 4 20 км 4/3 600 м
[Sc Ci fib]
+16.0 +10.8 71 +15 +19 1011.0 1009.3

 

Местоположение метеостанции Чемурнаут (Камчатский край, Россия): широта 60.73 долгота 163.00 высота над уровнем моря 14 м.

В архиве по умолчанию представлена погода в Чемурнауте за последнюю неделю. Архивные данные за месяц целиком и за предыдущие месяцы, начиная с января 2011 года, Вы можете получить, выбрав интересующий диапазон дат из раскрывающегося списка и нажав кнопку "Ввод!".

Внимание! Время в таблицах - всемирное. Для получения местного времени необходимо прибавить поправку, которая в Чемурнауте равна 12 ч.

Смотрите также архив погоды в соседних городах и на ближайших метеорологических станциях:

Погода в Оссоре (Камчатский край, Россия) (167 км)
Погода в Тиличиках (Камчатский край, Россия) (167 км)
Погода в Эвенске (Магаданская область, Россия) (242 км)
Погода в Палане (Камчатский край, Россия) (252 км)
Погода в Каменском (Камчатский край, Россия) (258 км)
Погода в Усть-Воямполке (Камчатский край, Россия) (331 км)
Погода на Мысе Озерном (Камчатский край, Россия) (343 км)
Погода в Апуке (Камчатский край, Россия) (362 км)
Погода в Лабазной (Магаданская область, Россия) (370 км)
Погода в Слаутном (Камчатский край, Россия) (372 км)

Пояснения к столбцам:

Ветер - указаны скорость ветра в м/с - средняя за 10 мин, порывы в срок и между сроками (в фигурных скобках) и направление, откуда дует ветер: С - северный, СВ - северо-восточный, В - восточный, ЮВ - юго-восточный, Ю - южный, ЮЗ - юго-западный, З - западный, СЗ - северо-западный.
Видимость - горизонтальная дальность видимости в метрах или километрах. При видимости от 1 до 10 км при отсутствии осадков обычно наблюдается дымка, при ухудшении видимости до 1 км и менее - туман. В сухую погоду видимость может ухудшаться дымом, пылью или мглою.
Явления - указаны атмосферные явления, наблюдавшиеся в срок или в последний час перед сроком; фигурными скобками обозначены явления, наблюдавшиеся между сроками (за 1-3 часа до срока); квадратными скобками обозначены град или гололедные отложения с указанием их диаметра в мм.
Облачность - указаны через наклонную черту общая и нижняя облачность в баллах и высота нижней границы облаков в метрах; квадратными скобками обозначены формы облаков: Ci - перистые, Cs - перисто-слоистые, Cc - перисто-кучевые, Ac - высококучевые, As - высокослоистые, Sc - слоисто-кучевые, Ns - слоисто-дождевые, Cu - кучевые, Cb - кучево-дождевые. Подробнее классификацию облаков см. в Атласе облаков (PDF).
T - Температура воздуха - температура, измеренная на высоте 2 м над землей.
Td - Температура точки росы - температура, при понижении до которой содержащийся в воздухе водяной пар достигнет насыщения.
f - Относительная влажность воздуха - влажноcть воздуха, измеренная на высоте 2 м над землей.
Te - Эффективная температура - температура, которую ощущает одетый по сезону человек в тени. Характеристика душности погоды. При расчете учитывается влияние влажности воздуха и скорости ветра на теплоощущения человека.
Tes - Эффективная температура на солнце - температура, которую ощущает человек, с поправкой на солнечный нагрев. Характеристика знойности погоды. Зависит от высоты солнца над горизонтом, облачности и скорости ветра. Ночью, в пасмурную погоду, а также при ветре 12 м/с и более поправка равна нулю.
P - Атмосферное давление - приведенное к уровню моря атмосферное давление.
Po - Атмосферное давление - измеренное на уровне метеостанции атмосферное давление.
Tmin - Минимальная температура - минимум температуры воздуха на высоте 2 м над землей.
Tmax - Максимальная температура - максимум температуры воздуха на высоте 2 м над землей.
R - Количество осадков - Количество выпавших осадков за период времени, мм. При наведении курсора мыши на число - период времени, за который выпало указанное количество осадков.
R24 - Количество осадков - Количество выпавших осадков за 24 часа, мм.
S - Снежный покров - Высота снежного покрова, см. При наведении курсора мыши на число - состояние снежного покрова и степень покрытия местности в баллах.